User: anonymous   Login
Location: Brabourne
(51.1333°N, 1.0000°E)
Time: 18:42:39
(UTC+00:00)
Language:

Cosmos 1825 Rocket - Orbit

View from above orbital plane
View from above orbital plane
View from above satellite
View from above satellite

Ground track
Ground track

The orbit data is extracted from the following two-line orbital elements,

1 17567U 87024B   21267.86115367  .00000123  00000-0  11959-4 0  9997
2 17567  82.5321 178.1395 0017844 234.6051 125.3498 14.83821838846802
Epoch (UTC): 24 September 2021 20:40:03
Eccentricity: 0.0017844
inclination: 82.5321°
perigee height: 605 km
apogee height: 630 km
right ascension of ascending node: 178.1395°
argument of perigee: 234.6051°
revolutions per day: 14.83821838
mean anomaly at epoch: 125.3498°
orbit number at epoch: 84680

The dashed part of the orbit path shows where the satellite is in the earth's shadow,  

DLR